| time (UTC) | temp C | wind direction | speed KPH | gust KPH | rain 1hr cm | rain 24hr cm | rain mn cm | humidity % | barometer mb |
| 20260502163538 | 20 | 218 | 12.9 | 9.7 | 0.00 | 0.00 | 0.00 | 57 | 1016.0 |
| 20260502162537 | 22 | 209 | 8.0 | 1.6 | 0.00 | 0.00 | 0.00 | 78 | 1016.0 |
| 20260502161537 | 21 | 209 | 8.0 | 1.6 | 0.00 | 0.00 | 0.00 | 78 | 1016.0 |
| 20260502160536 | 20 | 209 | 8.0 | 1.6 | 0.00 | 0.00 | 0.00 | 78 | 1016.0 |
| 20260502151533 | 17 | 209 | 8.0 | 3.2 | 0.00 | 0.00 | 0.00 | 78 | 1016.0 |
| 20260502150533 | 20 | 80 | 1.6 | 1.6 | 0.00 | 0.00 | 0.00 | 91 | 1016.0 |
| 20260502130525 | 16 | 61 | 1.6 | 4.8 | 0.00 | 0.00 | 0.00 | 89 | 1017.0 |
| 20260502123523 | 12 | 61 | 1.6 | 4.8 | 0.00 | 0.00 | 0.00 | 89 | 1017.0 |
| 20260502122522 | 11 | 61 | 1.6 | 4.8 | 0.00 | 0.00 | 0.00 | 89 | 1017.0 |
| 20260502121521 | 10 | 61 | 3.2 | 4.8 | 0.00 | 0.00 | 0.00 | 89 | 1017.0 |
| 20260502120521 | 12 | 61 | 1.6 | 4.8 | 0.00 | 0.00 | 0.00 | 90 | 1017.0 |
| 20260502115520 | 11 | 61 | 1.6 | 4.8 | 0.00 | 0.00 | 0.00 | 90 | 1017.0 |
| 20260502114520 | 10 | 61 | 3.2 | 4.8 | 0.00 | 0.00 | 0.00 | 90 | 1017.0 |
| 20260502113519 | 10 | 61 | 3.2 | 4.8 | 0.00 | 0.00 | 0.00 | 90 | 1017.0 |
| 20260502112518 | 14 | 73 | 1.6 | 4.8 | 0.00 | 0.00 | 0.00 | 91 | 1016.0 |
| 20260502111517 | 13 | 73 | 1.6 | 4.8 | 0.00 | 0.00 | 0.00 | 91 | 1016.0 |
| 20260502110516 | 13 | 73 | 1.6 | 4.8 | 0.00 | 0.00 | 0.00 | 91 | 1016.0 |
| 20260502105516 | 12 | 73 | 3.2 | 4.8 | 0.00 | 0.00 | 0.00 | 91 | 1016.0 |
| 20260502104515 | 12 | 73 | 3.2 | 4.8 | 0.00 | 0.00 | 0.00 | 91 | 1016.0 |
| 20260502103514 | 14 | 66 | 1.6 | 4.8 | 0.00 | 0.00 | 0.00 | 90 | 1016.0 |
| 20260502102514 | 13 | 66 | 1.6 | 4.8 | 0.00 | 0.00 | 0.00 | 90 | 1016.0 |
| 20260502101513 | 12 | 66 | 1.6 | 4.8 | 0.00 | 0.00 | 0.00 | 90 | 1016.0 |
| 20260502100512 | 14 | 66 | 1.6 | 4.8 | 0.00 | 0.00 | 0.00 | 91 | 1016.0 |
| 20260502091510 | 12 | 47 | 1.6 | 3.2 | 0.00 | 0.00 | 0.00 | 90 | 1016.0 |
| 20260502090509 | 14 | 47 | 1.6 | 1.6 | 0.00 | 0.00 | 0.00 | 92 | 1016.0 |
| 20260502071502 | 12 | 249 | 0.0 | 3.2 | 0.00 | 0.00 | 0.00 | 92 | 1017.0 |
| 20260502070501 | 15 | 249 | 0.0 | 3.2 | 0.00 | 0.00 | 0.00 | 94 | 1017.0 |
| 20260502065500 | 13 | 249 | 0.0 | 3.2 | 0.00 | 0.00 | 0.00 | 94 | 1017.0 |
| 20260502064500 | 12 | 249 | 0.0 | 3.2 | 0.00 | 0.00 | 0.00 | 94 | 1017.0 |
| 20260502063459 | 15 | 249 | 0.0 | 3.2 | 0.00 | 0.00 | 0.00 | 91 | 1017.0 |
| 20260502062459 | 13 | 226 | 0.0 | 1.6 | 0.00 | 0.00 | 0.00 | 91 | 1017.0 |
| 20260502061458 | 12 | 226 | 0.0 | 1.6 | 0.00 | 0.00 | 0.00 | 91 | 1017.0 |
| 20260502060457 | 15 | 226 | 0.0 | 1.6 | 0.00 | 0.00 | 0.00 | 92 | 1017.0 |
| 20260502055457 | 13 | 226 | 0.0 | 1.6 | 0.00 | 0.00 | 0.00 | 92 | 1017.0 |
| 20260502054456 | 12 | 226 | 0.0 | 1.6 | 0.00 | 0.00 | 0.00 | 92 | 1017.0 |
| 20260502053455 | 15 | 226 | 0.0 | 1.6 | 0.00 | 0.00 | 0.00 | 90 | 1017.0 |
| 20260502052455 | 14 | 142 | 0.0 | 1.6 | 0.00 | 0.00 | 0.00 | 90 | 1017.0 |
| 20260502051454 | 13 | 142 | 0.0 | 1.6 | 0.00 | 0.00 | 0.00 | 90 | 1017.0 |
| 20260502050453 | 15 | 142 | 0.0 | 1.6 | 0.00 | 0.00 | 0.00 | 91 | 1017.0 |
| 20260502045453 | 13 | 142 | 0.0 | 1.6 | 0.00 | 0.00 | 0.00 | 91 | 1017.0 |
| 20260502044452 | 15 | 142 | 0.0 | 1.6 | 0.00 | 0.00 | 0.00 | 90 | 1017.0 |
| 20260502043452 | 13 | 142 | 0.0 | 1.6 | 0.00 | 0.00 | 0.00 | 90 | 1017.0 |
| 20260502042451 | 15 | 90 | 0.0 | 1.6 | 0.00 | 0.00 | 0.00 | 88 | 1017.0 |
| 20260502041450 | 14 | 90 | 0.0 | 1.6 | 0.00 | 0.00 | 0.00 | 88 | 1017.0 |
| 20260502040450 | 15 | 90 | 0.0 | 1.6 | 0.00 | 0.00 | 0.00 | 88 | 1017.0 |
| 20260502035449 | 14 | 90 | 0.0 | 1.6 | 0.00 | 0.00 | 0.00 | 88 | 1017.0 |
| 20260502034448 | 14 | 90 | 0.0 | 1.6 | 0.00 | 0.00 | 0.00 | 88 | 1017.0 |
| 20260502033448 | 16 | 92 | 1.6 | 1.6 | 0.00 | 0.00 | 0.00 | 87 | 1017.0 |
| 20260502032447 | 15 | 92 | 3.2 | 1.6 | 0.00 | 0.00 | 0.00 | 87 | 1016.0 |
| 20260502031446 | 15 | 92 | 3.2 | 1.6 | 0.00 | 0.00 | 0.00 | 87 | 1016.0 |
| 20260502030446 | 16 | 92 | 1.6 | 1.6 | 0.00 | 0.00 | 0.00 | 88 | 1016.0 |
| 20260502025445 | 15 | 92 | 3.2 | 1.6 | 0.00 | 0.00 | 0.00 | 88 | 1016.0 |
| 20260502024444 | 16 | 92 | 1.6 | 1.6 | 0.00 | 0.00 | 0.00 | 88 | 1016.0 |
| 20260502023444 | 15 | 92 | 3.2 | 1.6 | 0.00 | 0.00 | 0.00 | 88 | 1016.0 |
| 20260502022443 | 15 | 63 | 3.2 | 1.6 | 0.00 | 0.00 | 0.00 | 88 | 1015.0 |
| 20260502021442 | 15 | 63 | 3.2 | 1.6 | 0.00 | 0.00 | 0.00 | 89 | 1015.0 |
| 20260502020442 | 15 | 63 | 3.2 | 1.6 | 0.00 | 0.00 | 0.00 | 89 | 1015.0 |
| 20260502015441 | 15 | 63 | 3.2 | 1.6 | 0.00 | 0.00 | 0.00 | 90 | 1015.0 |
| 20260502014440 | 15 | 63 | 3.2 | 1.6 | 0.00 | 0.00 | 0.00 | 89 | 1015.0 |
| 20260502013440 | 15 | 63 | 3.2 | 1.6 | 0.00 | 0.00 | 0.00 | 89 | 1015.0 |
| 20260502012439 | 16 | 122 | 0.0 | 1.6 | 0.00 | 0.00 | 0.00 | 84 | 1015.0 |
| 20260502011438 | 15 | 122 | 0.0 | 1.6 | 0.00 | 0.00 | 0.00 | 84 | 1014.0 |
| 20260502010438 | 15 | 122 | 0.0 | 1.6 | 0.00 | 0.00 | 0.00 | 84 | 1014.0 |
| 20260502005437 | 16 | 122 | 0.0 | 1.6 | 0.00 | 0.00 | 0.00 | 85 | 1014.0 |
| 20260502004437 | 15 | 122 | 0.0 | 1.6 | 0.00 | 0.00 | 0.00 | 85 | 1014.0 |
| 20260502003436 | 17 | 204 | 1.6 | 1.6 | 0.00 | 0.00 | 0.00 | 82 | 1014.0 |
| 20260502002436 | 16 | 204 | 1.6 | 1.6 | 0.00 | 0.00 | 0.00 | 82 | 1013.0 |
| 20260502001435 | 16 | 204 | 1.6 | 1.6 | 0.00 | 0.00 | 0.00 | 82 | 1013.0 |
| 20260502000434 | 17 | 204 | 1.6 | 1.6 | 0.00 | 0.00 | 0.00 | 85 | 1013.0 |
| 20260501235434 | 16 | 204 | 1.6 | 1.6 | 0.00 | 0.00 | 0.00 | 85 | 1013.0 |
| 20260501234433 | 17 | 204 | 1.6 | 1.6 | 0.00 | 0.00 | 0.00 | 82 | 1013.0 |
| 20260501233433 | 20 | 204 | 1.6 | 1.6 | 0.00 | 0.00 | 0.00 | 82 | 1013.0 |
| 20260501232432 | 21 | 215 | 4.8 | 3.2 | 0.00 | 0.00 | 0.00 | 75 | 1013.0 |
| 20260501231432 | 21 | 215 | 4.8 | 3.2 | 0.00 | 0.00 | 0.00 | 79 | 1013.0 |
| 20260501230431 | 18 | 215 | 4.8 | 3.2 | 0.00 | 0.00 | 0.00 | 79 | 1013.0 |
| 20260501225431 | 18 | 215 | 4.8 | 3.2 | 0.00 | 0.00 | 0.00 | 83 | 1013.0 |
| 20260501224430 | 18 | 215 | 4.8 | 3.2 | 0.00 | 0.00 | 0.00 | 81 | 1013.0 |
| 20260501223428 | 18 | 215 | 4.8 | 3.2 | 0.00 | 0.00 | 0.00 | 81 | 1013.0 |
| 20260501222428 | 18 | 211 | 8.0 | 6.4 | 0.00 | 0.00 | 0.00 | 73 | 1013.0 |
| 20260501221427 | 18 | 211 | 8.0 | 6.4 | 0.00 | 0.00 | 0.00 | 74 | 1013.0 |
| 20260501220426 | 18 | 211 | 8.0 | 6.4 | 0.00 | 0.00 | 0.00 | 74 | 1013.0 |
| 20260501215426 | 18 | 211 | 8.0 | 6.4 | 0.00 | 0.00 | 0.00 | 78 | 1013.0 |
| 20260501214425 | 18 | 211 | 8.0 | 6.4 | 0.00 | 0.00 | 0.00 | 78 | 1013.0 |
| 20260501213425 | 18 | 211 | 8.0 | 6.4 | 0.00 | 0.00 | 0.00 | 78 | 1013.0 |
| 20260501212424 | 18 | 216 | 8.0 | 8.0 | 0.00 | 0.00 | 0.00 | 69 | 1013.0 |
| 20260501211423 | 18 | 216 | 8.0 | 8.0 | 0.00 | 0.00 | 0.00 | 73 | 1013.0 |
| 20260501210423 | 18 | 216 | 8.0 | 8.0 | 0.00 | 0.00 | 0.00 | 73 | 1013.0 |
| 20260501205422 | 18 | 216 | 8.0 | 8.0 | 0.00 | 0.00 | 0.00 | 79 | 1013.0 |
| 20260501204421 | 18 | 216 | 8.0 | 8.0 | 0.00 | 0.00 | 0.00 | 77 | 1013.0 |
| 20260501203421 | 19 | 214 | 11.3 | 11.3 | 0.00 | 0.00 | 0.00 | 67 | 1013.0 |
| 20260501202420 | 18 | 214 | 11.3 | 11.3 | 0.00 | 0.00 | 0.00 | 67 | 1013.0 |
| 20260501201419 | 20 | 214 | 11.3 | 11.3 | 0.00 | 0.00 | 0.00 | 69 | 1014.0 |
| 20260501200419 | 20 | 214 | 11.3 | 11.3 | 0.00 | 0.00 | 0.00 | 69 | 1014.0 |
| 20260501195418 | 20 | 214 | 11.3 | 11.3 | 0.00 | 0.00 | 0.00 | 75 | 1014.0 |
| 20260501194418 | 24 | 214 | 11.3 | 11.3 | 0.00 | 0.00 | 0.00 | 72 | 1014.0 |
| 20260501193417 | 24 | 214 | 11.3 | 11.3 | 0.00 | 0.00 | 0.00 | 72 | 1014.0 |
| 20260501192416 | 25 | 215 | 14.5 | 9.7 | 0.00 | 0.00 | 0.00 | 63 | 1014.0 |
| 20260501191416 | 25 | 215 | 14.5 | 9.7 | 0.00 | 0.00 | 0.00 | 64 | 1014.0 |
| 20260501190415 | 25 | 215 | 14.5 | 9.7 | 0.00 | 0.00 | 0.00 | 64 | 1014.0 |
| 20260501185415 | 25 | 215 | 14.5 | 9.7 | 0.00 | 0.00 | 0.00 | 70 | 1014.0 |
| 20260501184414 | 24 | 215 | 14.5 | 9.7 | 0.00 | 0.00 | 0.00 | 70 | 1014.0 |
| 20260501183414 | 22 | 215 | 14.5 | 9.7 | 0.00 | 0.00 | 0.00 | 70 | 1014.0 |
| 20260501182413 | 23 | 215 | 16.1 | 11.3 | 0.00 | 0.00 | 0.00 | 64 | 1014.0 |
| 20260501181413 | 22 | 215 | 16.1 | 11.3 | 0.00 | 0.00 | 0.00 | 68 | 1014.0 |
| 20260501180412 | 22 | 215 | 16.1 | 11.3 | 0.00 | 0.00 | 0.00 | 68 | 1014.0 |
| 20260501175411 | 22 | 215 | 16.1 | 11.3 | 0.00 | 0.00 | 0.00 | 68 | 1015.0 |
| 20260501174411 | 22 | 215 | 16.1 | 11.3 | 0.00 | 0.00 | 0.00 | 68 | 1015.0 |
| 20260501173410 | 22 | 215 | 16.1 | 11.3 | 0.00 | 0.00 | 0.00 | 68 | 1015.0 |
| 20260501172410 | 22 | 222 | 12.9 | 8.0 | 0.00 | 0.00 | 0.00 | 71 | 1015.0 |